User: anonymous   Login
Location: Unspecified
(0.0000°N, 0.0000°E)
Time: 04:16:25
(UTC+00:00)
Language:

STARLINK-5874 - Orbit

View from above orbital plane
View from above orbital plane
View from above satellite
View from above satellite

Ground track
Ground track

The orbit is defined by the following mean orbital elements,

1 56353U          26145.26411936 +.00000000 +00000-0 -71619-4 0 00004
2 56353  97.4466 145.1839 0004063 107.2146 252.9527 15.05652541    01
Epoch (UTC): 25 May 2026 06:20:19
Eccentricity: 0.0004063
inclination: 97.4466°
perigee height: 547 km
apogee height: 552 km
right ascension of ascending node: 145.1839°
argument of perigee: 107.2146°
revolutions per day: 15.05652541
mean anomaly at epoch: 252.9527°

The dashed part of the orbit path shows where the satellite is in the earth's shadow,  

DLR